GFSFLT2_850_thetae_198.txt.gz
Theta_e
299 299 299 299 298 298 299 299 299 300 300 300 300 303 304 304 304 305 305 305 304 301 299 296 297 300 310
298 297 297 297 299 299 298 297 297 297 297 298 298 299 302 302 302 303 305 305 304 303 300 297 295 297 300
294 296 297 299 298 298 296 296 296 297 297 299 300 302 301 301 300 301 302 304 304 304 301 297 295 295 297
293 295 296 296 296 296 296 296 296 295 297 297 297 298 298 299 299 301 302 303 304 304 302 298 295 294 295
292 293 294 295 295 295 295 296 296 295 295 296 297 297 298 299 299 299 299 302 303 303 302 299 296 294 294
292 291 292 294 294 295 293 292 294 293 295 294 295 296 296 297 298 298 298 300 302 303 303 301 297 294 293
290 291 292 292 292 292 292 293 292 292 293 294 293 297 295 296 296 297 297 298 300 302 303 302 298 294 292
290 291 292 292 293 293 293 293 292 291 293 293 294 294 294 295 296 296 297 297 298 298 301 300 298 294 292
288 289 290 291 291 291 291 291 292 291 291 292 293 292 293 294 296 296 296 297 298 296 296 294 294 293 293
287 287 287 287 288 290 291 291 290 292 291 291 290 291 293 294 296 294 294 296 297 297 296 297 296 295 294
289 288 288 289 290 291 291 291 290 290 290 290 290 291 292 292 293 294 295 296 295 295 296 295 296 295 294
288 289 288 288 289 289 289 289 289 288 289 290 291 291 291 291 291 293 294 295 296 296 294 295 296 295 294
289 288 288 288 288 289 288 287 287 287 288 290 291 291 290 291 291 291 292 293 295 295 295 295 295 296 295
287 287 287 287 288 287 286 286 286 286 287 288 290 290 290 290 291 291 292 292 293 294 294 293 295 295 295
287 286 286 286 286 286 286 286 286 286 286 286 289 290 290 290 290 291 292 292 293 293 293 293 294 294 294
287 286 285 285 285 285 285 285 285 286 286 286 288 288 289 290 289 290 291 292 292 292 292 293 293 292 292
286 286 285 284 284 285 285 285 285 286 286 286 286 288 288 289 289 290 291 291 291 291 291 291 292 293 292

GFSFLT2_850_thetae_201.txt.gz
Theta_e
294 292 291 292 294 296 296 296 297 297 296 296 296 297 298 298 300 302 301 302 303 305 306 305 302 298 297
291 291 291 291 293 296 297 297 295 295 295 296 296 297 299 301 301 302 302 301 301 302 304 305 304 300 295
290 291 291 290 293 294 293 293 293 295 295 295 295 295 295 297 299 300 300 300 300 301 303 304 304 302 296
291 292 291 290 291 292 293 293 293 293 293 293 295 295 295 295 297 298 298 299 300 301 302 304 304 303 297
292 292 291 290 291 292 292 292 292 291 291 291 291 292 293 293 295 296 297 298 298 298 301 303 304 303 299
290 289 288 290 291 292 292 293 292 292 292 292 291 290 292 293 294 295 295 296 297 298 299 301 302 302 300
288 288 287 289 291 292 292 292 292 292 291 293 291 291 292 291 293 294 295 296 296 297 297 299 301 302 301
287 286 287 288 289 289 289 289 289 290 291 291 291 290 290 290 291 294 295 296 296 297 297 298 299 300 300
286 287 287 288 288 288 289 290 290 290 291 291 290 290 290 290 291 292 293 295 296 296 296 298 299 300 298
287 288 288 288 288 289 289 291 290 290 290 289 289 289 290 290 291 292 292 293 295 296 296 297 298 297 297
289 289 288 288 288 288 289 289 288 288 288 288 288 287 290 291 290 291 291 292 293 294 295 296 297 298 295
289 288 288 288 287 287 288 288 287 287 286 287 287 287 289 290 290 290 291 292 292 294 294 295 295 296 297
288 288 287 287 286 286 287 287 286 286 286 285 286 287 289 290 290 290 290 291 292 293 294 294 294 296 296
288 288 287 286 285 285 285 286 286 285 285 285 286 287 288 289 289 290 290 290 292 292 293 294 294 294 295
288 287 286 286 285 284 284 285 285 285 285 286 286 286 287 288 289 289 290 291 291 292 292 293 294 294 294
288 287 286 286 285 284 284 284 285 285 285 285 285 286 286 288 289 289 289 290 291 291 291 292 293 293 294
286 285 286 285 285 284 284 284 285 285 285 285 286 286 286 287 287 288 289 289 290 290 290 290 291 292 292

GFSFLT2_850_thetae_207.txt.gz
Theta_e
288 288 288 288 288 288 289 289 289 289 290 291 292 292 293 293 294 295 296 297 297 297 297 299 302 303 303
288 288 288 288 287 287 286 286 286 287 289 290 291 291 291 291 291 291 291 291 292 292 293 296 298 299 300
288 288 288 287 287 286 286 286 286 286 287 288 290 291 292 291 289 290 291 292 291 291 292 293 295 297 297
287 287 288 287 287 286 286 286 286 286 287 287 289 289 290 289 288 291 291 290 291 291 293 294 294 295 296
287 287 287 287 286 287 286 286 287 287 286 286 286 286 287 287 289 291 290 289 290 290 292 294 294 294 295
287 287 287 287 287 287 286 287 289 288 287 287 287 287 287 288 289 289 288 287 289 293 293 293 293 294 294
288 287 287 287 287 287 286 288 288 288 287 287 287 287 288 289 289 287 287 287 290 291 292 291 292 293 294
286 286 287 287 288 287 289 289 288 287 286 288 288 289 288 287 286 286 286 286 288 290 290 290 291 292 294
285 286 287 288 288 288 288 288 288 287 286 288 288 287 286 286 286 286 285 287 288 290 289 290 291 292 293
286 287 287 288 287 288 288 288 288 287 287 287 286 286 285 285 285 285 285 286 289 289 289 291 292 292 293
288 287 287 286 286 287 288 288 286 286 286 285 286 286 285 285 285 285 285 286 287 289 290 291 291 292 292
287 287 287 286 285 287 287 287 286 285 285 284 285 286 285 285 285 285 285 286 288 289 289 290 291 292 293
286 286 286 286 286 287 287 287 286 285 284 284 285 285 285 285 285 285 285 287 288 289 289 290 291 292 293
285 285 286 286 286 287 287 286 285 285 284 284 284 284 284 284 285 285 286 287 288 288 289 289 291 291 293
285 285 286 286 287 287 287 286 286 285 284 284 284 284 284 285 285 285 285 286 288 288 288 289 290 290 292
284 285 285 286 286 286 285 286 285 284 283 283 283 284 284 285 285 285 285 285 287 288 288 289 290 290 291
284 284 285 285 285 285 285 285 285 284 284 283 283 283 283 284 284 285 285 285 287 287 288 288 289 290 290

GFSFLT2_850_thetae_210.txt.gz
Theta_e
287 287 287 288 287 287 287 287 286 287 287 287 287 288 291 293 292 293 291 291 292 294 293 293 295 296 298
287 287 287 287 287 287 286 286 286 286 286 286 286 287 289 292 293 292 290 288 289 290 292 292 293 295 295
286 286 286 286 286 286 286 286 286 286 286 286 286 286 286 289 289 288 287 289 290 292 292 293 293 293 293
286 286 286 286 286 286 286 286 286 285 286 286 287 286 286 286 286 286 288 289 289 288 288 289 292 294 294
286 285 285 286 286 286 286 286 286 285 287 287 287 286 286 286 287 287 288 288 288 287 290 292 293 293 293
286 285 286 286 286 287 286 286 287 287 288 287 286 286 286 286 287 287 287 286 286 287 290 292 293 291 291
286 286 286 286 286 286 287 287 288 288 288 287 286 285 286 286 286 286 286 286 287 288 288 289 290 290 290
287 286 286 286 287 288 289 288 288 288 287 287 286 286 286 285 286 285 285 285 285 286 287 290 290 289 289
287 287 287 287 287 287 288 287 287 287 287 286 286 286 285 285 285 285 285 285 285 285 288 289 289 289 289
287 288 288 287 287 287 286 285 286 287 287 285 285 284 284 285 285 285 285 285 285 286 287 288 289 289 290
287 287 287 287 287 286 286 286 286 287 287 285 284 284 284 284 285 285 285 285 286 288 288 288 289 289 290
286 286 286 286 286 286 286 286 287 287 287 285 284 284 284 284 284 284 285 285 286 287 287 288 289 289 290
285 285 285 285 285 285 285 286 286 287 286 285 285 283 283 284 284 284 284 285 285 285 288 288 288 289 290
284 285 285 285 285 286 286 286 286 287 286 286 285 283 283 284 284 284 284 285 285 286 287 288 288 289 289
284 284 284 284 284 285 286 286 285 285 285 285 284 283 283 283 284 284 284 285 284 285 287 288 288 289 289
284 284 284 284 284 284 285 285 285 285 285 284 284 283 283 283 284 284 285 285 284 285 286 287 288 289 289
283 283 283 283 284 284 284 285 285 284 284 284 283 283 283 283 283 284 284 285 284 284 285 287 288 288 289